STP-S29A OBJECT A

Last updated on Sun Apr 12 2026 00:02:10 GMT+0000 (Coordinated Universal Time)

1 68627U 26074A 26101.33049074 .00008099 00000+0 35037-3 0 9994 2 68627 60.0174 74.6287 0015952 307.6638 52.2995 15.23161962 590
UTC large
Height (km)
Speed (km/s)
/
Latitude / Longitude
Inclination (degrees)
Orbital Period (minutes)
Azimuth
Elevation
Range (km)
Doppler Factor

Next 0 passes for location: London (51.5072 / 0.1276)

Sorry there are no passes over London.
STP-S29A OBJECT A